Date String (YYYY-MM-DD hh:mm:ss) UTC,Instrument flags,Ambient pressure (hPa),Sample flow (lpm),Bypass flow (lpm),Sample temperature (°C),Ambient temperature (°C),ASC tube jacket temperature (°C),LED temperature (°C),Box temperature (°C),Sample RH (%),Span deviation,Mass concentration (μg/m³),Mass concentration (μg/m³),Mass concentration (μg/m³)
DateTimeUTC,F1_M11,P_M11,Q1_M11,Q2_M11,T1_M11,T2_M11,T3_M11,T4_M11,T5_M11,U1_M11,ZSPAN_M11,X0_M11,X2_M11,X1_M11
2022-11-01 07:00:00,,0824.0,5.00,0.00,28.6,26.8,00.0,37.6,30.3,09.2,0000.0,0005.05,0002.57,0002.04
2022-11-01 07:01:00,,0824.0,5.00,0.00,28.6,26.8,00.0,37.6,30.3,09.0,0000.0,0005.07,0002.57,0002.04
2022-11-01 07:02:00,,0824.0,5.00,0.00,28.6,26.8,00.0,37.6,30.3,08.8,0000.0,0005.15,0002.60,0002.04
2022-11-01 07:03:00,,0824.0,5.00,0.00,28.6,26.8,00.0,37.5,30.3,08.7,0000.0,0004.45,0002.62,0002.04
2022-11-01 07:04:00,,0824.0,5.00,0.00,28.6,26.8,00.0,37.5,30.3,08.8,0000.0,0004.15,0002.66,0002.05
2022-11-01 07:05:00,,0824.0,5.00,0.00,28.6,26.8,00.0,37.5,30.2,08.6,0000.0,0004.16,0002.69,0002.06
2022-11-01 07:06:00,,0824.0,5.00,0.00,28.6,26.8,00.0,37.5,30.2,08.4,0000.0,0004.14,0002.68,0002.07
2022-11-01 07:07:00,,0824.0,5.00,0.00,28.6,26.8,00.0,37.5,30.3,08.3,0000.0,0003.90,0002.58,0002.07
2022-11-01 07:08:00,,0824.0,5.01,0.00,28.6,26.8,00.0,37.5,30.3,08.3,0000.0,0004.14,0002.61,0002.07
2022-11-01 07:09:00,,0824.0,5.01,0.00,28.6,26.8,00.0,37.5,30.2,08.3,0000.0,0004.16,0002.65,0002.07
2022-11-01 07:10:00,,0824.1,4.99,0.00,28.5,26.8,00.0,37.5,30.2,08.7,0000.0,0004.09,0002.65,0002.07
2022-11-01 07:11:00,,0824.0,5.00,0.00,28.6,26.8,00.0,37.5,30.3,08.8,0000.0,0003.98,0002.62,0002.08
2022-11-01 07:12:00,,0824.0,5.00,0.00,28.5,26.8,00.0,37.5,30.2,08.6,0000.0,0004.03,0002.62,0002.09
2022-11-01 07:13:00,,0824.0,4.99,0.00,28.5,26.8,00.0,37.5,30.2,08.5,0000.0,0004.07,0002.63,0002.08
2022-11-01 07:14:00,,0824.0,5.00,0.00,28.5,26.8,00.0,37.5,30.2,08.4,0000.0,0004.20,0002.68,0002.08
2022-11-01 07:15:00,,0823.9,5.01,0.00,28.5,26.8,00.0,37.5,30.3,08.4,0000.0,0004.18,0002.68,0002.09
2022-11-01 07:16:00,,0824.0,5.00,0.00,28.5,26.8,00.0,37.4,30.3,08.3,0000.0,0004.21,0002.69,0002.10
2022-11-01 07:17:00,,0824.0,4.99,0.00,28.5,26.9,00.0,37.4,30.3,08.3,0000.0,0004.14,0002.69,0002.10
2022-11-01 07:18:00,,0823.9,5.01,0.00,28.6,26.9,00.0,37.4,30.4,08.3,0000.0,0004.52,0002.68,0002.09
2022-11-01 07:19:00,,0824.0,5.00,0.00,28.6,26.9,00.0,37.4,30.4,08.3,0000.0,0005.01,0002.68,0002.08
2022-11-01 07:20:00,,0824.0,5.01,0.00,28.6,26.9,00.0,37.4,30.4,08.3,0000.0,0004.98,0002.64,0002.09
2022-11-01 07:21:00,,0824.0,5.00,0.00,28.6,27.0,00.0,37.4,30.4,08.4,0000.0,0006.49,0002.62,0002.10
2022-11-01 07:22:00,,0824.0,5.00,0.00,28.6,27.0,00.0,37.4,30.4,08.6,0000.0,0006.52,0002.68,0002.11
2022-11-01 07:23:00,,0824.0,4.99,0.00,28.6,27.0,00.0,37.4,30.4,08.7,0000.0,0006.56,0002.70,0002.11
2022-11-01 07:24:00,,0824.0,4.99,0.00,28.6,27.0,00.0,37.4,30.4,08.8,0000.0,0006.57,0002.70,0002.12
2022-11-01 07:25:00,,0824.1,5.00,0.00,28.6,26.9,00.0,37.4,30.4,08.7,0000.0,0006.61,0002.68,0002.13
2022-11-01 07:26:00,,0824.1,5.01,0.00,28.5,26.9,00.0,37.4,30.3,08.8,0000.0,0006.66,0002.67,0002.12
2022-11-01 07:27:00,,0824.0,5.01,0.00,28.5,26.9,00.0,37.4,30.4,08.8,0000.0,0006.68,0002.66,0002.11
2022-11-01 07:28:00,,0824.0,5.00,0.00,28.5,26.9,00.0,37.4,30.3,08.8,0000.0,0006.67,0002.63,0002.08
2022-11-01 07:29:00,,0824.0,4.98,0.00,28.5,26.9,00.0,37.4,30.3,08.8,0000.0,0006.55,0002.61,0002.09
2022-11-01 07:30:00,,0824.0,4.99,0.00,28.5,26.9,00.0,37.4,30.3,08.9,0000.0,0006.51,0002.60,0002.09
2022-11-01 07:31:00,,0824.0,5.01,0.00,28.5,26.8,00.0,37.4,30.3,08.9,0000.0,0006.57,0002.60,0002.09
2022-11-01 07:32:00,,0824.0,5.00,0.00,28.5,26.8,00.0,37.4,30.3,08.9,0000.0,0005.04,0002.61,0002.08
2022-11-01 07:33:00,,0824.0,4.99,0.00,28.5,26.8,00.0,37.4,30.3,08.9,0000.0,0004.99,0002.58,0002.06
2022-11-01 07:34:00,,0824.0,4.99,0.00,28.5,26.9,00.0,37.4,30.3,08.9,0000.0,0005.01,0002.59,0002.06
2022-11-01 07:35:00,,0824.1,5.00,0.00,28.5,26.9,00.0,37.4,30.3,08.9,0000.0,0004.91,0002.56,0002.07
2022-11-01 07:36:00,,0824.0,5.01,0.00,28.5,26.9,00.0,37.4,30.3,08.8,0000.0,0005.09,0002.58,0002.07
2022-11-01 07:37:00,,0824.0,5.00,0.00,28.5,26.9,00.0,37.4,30.4,08.9,0000.0,0005.23,0002.57,0002.07
2022-11-01 07:38:00,,0824.0,5.00,0.00,28.5,26.9,00.0,37.4,30.3,08.9,0000.0,0005.15,0002.53,0002.06
2022-11-01 07:39:00,,0824.0,5.00,0.00,28.5,26.9,00.0,37.4,30.3,09.0,0000.0,0005.05,0002.51,0002.06
2022-11-01 07:40:00,,0824.0,5.00,0.00,28.5,26.9,00.0,37.4,30.3,09.0,0000.0,0004.86,0002.50,0002.06
2022-11-01 07:41:00,,0824.0,4.99,0.00,28.5,26.9,00.0,37.4,30.3,09.1,0000.0,0003.96,0002.47,0002.04
2022-11-01 07:42:00,,0824.0,4.99,0.00,28.5,26.9,00.0,37.4,30.3,09.2,0000.0,0004.02,0002.46,0002.05
2022-11-01 07:43:00,,0824.1,5.01,0.00,28.5,26.9,00.0,37.4,30.3,09.1,0000.0,0004.78,0002.43,0002.04
2022-11-01 07:44:00,,0824.0,5.00,0.00,28.5,26.9,00.0,37.4,30.3,09.1,0000.0,0004.64,0002.40,0002.04
2022-11-01 07:45:00,,0824.0,4.99,0.00,28.5,26.9,00.0,37.4,30.3,09.2,0000.0,0004.60,0002.39,0002.03
2022-11-01 07:46:00,,0824.1,4.99,0.00,28.5,26.9,00.0,37.4,30.2,09.2,0000.0,0004.62,0002.39,0002.01
2022-11-01 07:47:00,,0824.1,4.99,0.00,28.5,26.8,00.0,37.4,30.2,09.2,0000.0,0004.19,0002.31,0002.00
2022-11-01 07:48:00,,0824.1,5.02,0.00,28.5,26.8,00.0,37.4,30.2,09.3,0000.0,0003.85,0002.25,0001.99
2022-11-01 07:49:00,,0824.1,5.00,0.00,28.5,26.8,00.0,37.4,30.3,09.3,0000.0,0003.75,0002.22,0001.98
2022-11-01 07:50:00,,0824.1,4.99,0.00,28.5,26.8,00.0,37.4,30.2,09.4,0000.0,0003.76,0002.22,0001.97
2022-11-01 07:51:00,,0824.1,5.00,0.00,28.5,26.7,00.0,37.4,30.2,09.4,0000.0,0003.74,0002.20,0001.95
2022-11-01 07:52:00,,0824.1,5.00,0.00,28.5,26.7,00.0,37.4,30.2,09.4,0000.0,0003.67,0002.17,0001.95
2022-11-01 07:53:00,,0824.1,5.01,0.00,28.5,26.7,00.0,37.4,30.2,09.4,0000.0,0003.53,0002.17,0001.93
2022-11-01 07:54:00,,0824.1,5.01,0.00,28.4,26.7,00.0,37.3,30.1,09.4,0000.0,0002.70,0002.16,0001.91
2022-11-01 07:55:00,,0824.1,4.99,0.00,28.4,26.7,00.0,37.3,30.1,09.4,0000.0,0002.66,0002.14,0001.91
2022-11-01 07:56:00,,0824.1,4.99,0.00,28.4,26.7,00.0,37.3,30.2,09.4,0000.0,0002.60,0002.09,0001.89
2022-11-01 07:57:00,,0824.1,5.00,0.00,28.4,26.7,00.0,37.3,30.2,09.4,0000.0,0002.55,0002.06,0001.88
2022-11-01 07:58:00,,0824.1,5.00,0.00,28.4,26.7,00.0,37.3,30.2,09.5,0000.0,0002.59,0002.07,0001.88
2022-11-01 07:59:00,,0824.1,5.00,0.00,28.4,26.7,00.0,37.3,30.2,09.6,0000.0,0002.70,0002.12,0001.88
